Location: Cakovec
(46.3910°N, 16.4410°E)
Time: 17:19:40
(UTC+01:00)

ISS - Visible Passes

Search period start: 04 March 2024 00:00
Search period end: 14 March 2024 00:00
Orbit: 414 x 422 km, 51.6° (Epoch: 04 March)

Date Brightness Start Highest point End Pass type
(mag) Time Alt. Az. Time Alt. Az. Time Alt. Az.
04 Mar -3.4 04:36:46 54° NNW 04:37:12 61° NNE 04:40:34 10° ESE visible
05 Mar -1.4 03:50:50 24° E 03:50:50 24° E 03:52:25 10° E visible
05 Mar -3.2 05:23:46 18° W 05:25:54 42° SW 05:29:07 10° SE visible
06 Mar -3.8 04:37:55 66° SSW 04:37:55 66° SSW 04:41:17 10° SE visible
07 Mar -1.3 03:52:10 19° ESE 03:52:10 19° ESE 03:53:15 10° ESE visible
07 Mar -2.0 05:25:08 15° WSW 05:26:17 18° SW 05:28:37 10° S visible
08 Mar -2.1 04:39:32 22° S 04:39:32 22° S 04:41:16 10° SSE visible
12 Mar -1.1 19:43:58 10° S 19:44:01 10° S 19:44:01 10° S visible
13 Mar -1.8 18:56:43 10° SSE 18:58:33 14° SE 18:58:41 14° SE visible
13 Mar -0.7 20:31:30 10° WSW 20:31:39 11° WSW 20:31:39 11° WSW visible
